time_stamp(utc),avg(mph),gust(mph),direction(deg),12m_air_temp(f),sonic_u(cm/s),sonic_v(cm/s),sonic_w(cm/s),pressure,2m_air_temp(f),pyranometer(W/m^2)
"2017-06-01 00:00:21+00",10.4,11.4,,65.7,-321,-341,16,1013.66,65.6,0
"2017-06-01 00:05:21+00",9.4,11.4,,65.7,-289,-304,10,1013.5,65.7,0
"2017-06-01 00:10:21+00",9.0,10.0,,65.6,-263,-308,2,1013.5,65.7,0
"2017-06-01 00:15:21+00",8.4,9.4,,65.6,-250,-285,0,1013.6,65.6,0
"2017-06-01 00:20:21+00",9.1,10.1,,65.6,-260,-327,-2,1013.56,65.5,0
"2017-06-01 00:25:21+00",8.6,10.6,,65.6,-260,-294,11,1013.6,65.4,0
"2017-06-01 00:30:21+00",8.6,9.6,,65.5,-242,-301,6,1013.56,65.3,0
"2017-06-01 00:35:21+00",8.0,9.0,,65.5,-204,-291,5,1013.6,65.1,0
"2017-06-01 00:40:21+00",8.3,9.3,,65.4,-182,-313,4,1013.6,65,0
"2017-06-01 00:45:21+00",6.8,7.8,,65.3,-61,-281,-19,1013.54,64.9,0
"2017-06-01 00:50:21+00",5.3,6.3,,65,-71,-212,4,1013.47,64.8,0
"2017-06-01 00:55:21+00",6.8,7.8,,64.9,-138,-262,2,1013.65,64.7,0
"2017-06-01 01:00:21+00",6.9,8.9,,64.9,-154,-256,1,1013.59,64.6,0
"2017-06-01 01:05:21+00",7.7,9.7,,65.1,-160,-292,4,1013.33,64.6,0
"2017-06-01 01:10:21+00",7.4,8.4,,65.2,-191,-269,7,1013.39,64.6,0
"2017-06-01 01:15:21+00",7.2,9.2,,65.2,-208,-306,-36,1013.49,64.7,0
"2017-06-01 01:20:21+00",6.7,8.7,,65.2,-201,-311,-48,1013.52,64.7,0
"2017-06-01 01:25:21+00",10.5,12.5,,65.1,-161,-415,-41,1013.57,64.7,0
"2017-06-01 01:30:21+00",11.2,12.2,,65,-198,-442,-6,1013.63,64.6,0
"2017-06-01 01:35:21+00",10.1,12.1,,64.9,-225,-380,-1,1013.7,64.5,0
"2017-06-01 01:40:21+00",6.1,8.1,,64.7,-75,-245,7,1013.78,64.4,0
"2017-06-01 01:45:21+00",8.6,10.6,,64.4,-132,-346,-4,1013.87,64.2,0
"2017-06-01 01:50:21+00",11.2,12.2,,64.3,-206,-437,-4,1013.8,64,0
"2017-06-01 01:55:21+00",7.8,10.8,,64.1,-104,-317,-2,1013.82,63.8,0
"2017-06-01 02:00:21+00",9.2,10.2,,64,-209,-346,1,1013.99,63.6,0
"2017-06-01 02:05:21+00",9.5,10.5,,63.9,-251,-349,3,1014.06,63.5,0
"2017-06-01 02:10:21+00",9.2,11.2,,63.9,-237,-333,8,1014.14,63.4,0
"2017-06-01 02:15:21+00",7.8,9.8,,63.9,-162,-299,9,1014.16,63.4,0
"2017-06-01 02:20:21+00",6.0,8.0,,63.9,-74,-244,14,1014.15,63.3,0
"2017-06-01 02:25:21+00",6.4,8.4,,63.8,-119,-248,0,1014,63.2,0
"2017-06-01 02:30:21+00",6.2,7.2,,63.5,-19,-256,-8,1014.06,63,0
"2017-06-01 02:35:21+00",5.0,6.0,,63.2,-75,-190,2,1014.04,62.8,0
"2017-06-01 02:40:21+00",5.9,6.9,,63,-134,-217,-5,1014.04,62.6,0
"2017-06-01 02:45:21+00",5.1,6.1,,62.9,-74,-204,1,1013.93,62.4,0
"2017-06-01 02:50:21+00",4.8,5.8,,63,-83,-184,-10,1013.98,62.3,0
"2017-06-01 02:55:21+00",5.4,6.4,,63.2,-149,-183,1,1013.99,62.3,0
"2017-06-01 03:00:21+00",5.2,6.2,,63.4,-176,-135,9,1013.97,62.4,0
"2017-06-01 03:05:21+00",4.8,5.8,,63.6,-113,-171,-4,1013.97,62.5,0
"2017-06-01 03:10:21+00",5.1,6.1,,63.7,-60,-207,3,1013.89,62.7,0
"2017-06-01 03:15:21+00",8.2,9.2,,64,-249,-269,5,1013.88,63,0
"2017-06-01 03:20:21+00",4.4,6.4,,63.8,-75,-170,-4,1013.82,63,0
"2017-06-01 03:25:21+00",5.9,6.9,,63.5,-53,-241,-1,1013.72,62.7,0
"2017-06-01 03:30:21+00",5.4,7.4,,63.6,-109,-204,1,1013.73,62.8,0
"2017-06-01 03:35:21+00",3.8,4.8,,63.3,-29,-154,6,1013.78,62.6,0
"2017-06-01 03:40:21+00",4.9,5.9,,62.9,31,-192,-2,1013.75,62.4,0
"2017-06-01 03:45:21+00",6.0,8.0,,63.2,-109,-219,-14,1013.77,62.3,0
"2017-06-01 03:50:21+00",5.4,6.4,,63.2,-128,-197,-1,1013.84,62.3,0
"2017-06-01 03:55:21+00",5.6,6.6,,63.4,-117,-207,-10,1013.85,62.3,0
"2017-06-01 04:00:21+00",6.9,7.9,,63.5,-161,-258,-7,1013.82,62.5,0
"2017-06-01 04:05:21+00",6.8,7.8,,63.6,-219,-192,4,1013.71,62.5,0
"2017-06-01 04:10:21+00",7.2,8.2,,63.7,-213,-240,6,1013.71,62.6,0
"2017-06-01 04:15:21+00",6.9,7.9,,63.7,-189,-250,9,1013.64,62.7,0
"2017-06-01 04:20:21+00",7.3,8.3,,63.6,-135,-281,1,1013.69,62.6,0
"2017-06-01 04:25:21+00",7.9,8.9,,63.5,-210,-284,3,1013.71,62.5,0
"2017-06-01 04:30:21+00",7.1,8.1,,63.5,-226,-212,2,1013.64,62.6,0
"2017-06-01 04:35:21+00",7.5,7.5,,63.5,-248,-199,11,1013.65,62.6,0
"2017-06-01 04:40:21+00",7.8,8.8,,63.5,-249,-243,8,1013.61,62.6,0
"2017-06-01 04:45:21+00",10.0,12.0,,63.6,-328,-283,12,1013.55,62.7,0
"2017-06-01 04:50:21+00",8.8,9.8,,63.7,-266,-293,9,1013.52,62.9,0
"2017-06-01 04:55:21+00",9.9,10.9,,63.7,-308,-325,10,1013.4,63,0
"2017-06-01 05:00:21+00",7.8,8.8,,63.7,-246,-246,10,1013.41,63,0
"2017-06-01 05:05:21+00",7.3,9.3,,63.5,-111,-290,-7,1013.38,62.8,0
"2017-06-01 05:10:21+00",7.9,8.9,,63.4,-226,-274,4,1013.38,62.6,0
"2017-06-01 05:15:21+00",7.7,9.7,,63.4,-154,-294,-5,1013.37,62.7,0
"2017-06-01 05:20:21+00",8.7,10.7,,63.3,-260,-297,-3,1013.32,62.6,0
"2017-06-01 05:25:21+00",8.2,10.2,,63.2,-287,-208,13,1013.3,62.6,0
"2017-06-01 05:30:21+00",8.4,9.4,,63.2,-304,-208,2,1013.37,62.6,0
"2017-06-01 05:35:21+00",8.6,10.6,,63.1,-308,-211,9,1013.48,62.6,0
"2017-06-01 05:40:21+00",6.4,8.4,,63.1,-253,-141,10,1013.45,62.6,0
"2017-06-01 05:45:21+00",10.4,11.4,,63,-366,-275,15,1013.47,62.6,0
"2017-06-01 05:50:21+00",11.6,13.6,,62.7,-452,-264,19,1013.47,62.6,0
"2017-06-01 05:55:21+00",10.6,12.6,,62.5,-367,-284,25,1013.5,62.5,0
"2017-06-01 06:00:21+00",11.1,13.1,,62.3,-438,-262,27,1013.53,62.5,0
"2017-06-01 06:05:21+00",9.4,10.4,,62.1,-388,-198,25,1013.71,62.5,0
"2017-06-01 06:10:21+00",8.5,9.5,,62.1,-347,-185,22,1013.66,62.4,0
"2017-06-01 06:15:21+00",9.0,11.0,,62.2,-332,-220,12,1013.62,62.5,0
"2017-06-01 06:20:21+00",8.9,9.9,,62.5,-383,-179,11,1013.63,62.5,0
"2017-06-01 06:25:21+00",10.2,11.2,,62.7,-419,-109,11,1013.63,62.5,0
"2017-06-01 06:30:21+00",9.8,10.8,,62.7,-424,-155,18,1013.52,62.6,0
"2017-06-01 06:35:21+00",9.7,11.7,,62.8,-412,-63,10,1013.45,62.6,0
"2017-06-01 06:40:21+00",8.3,9.3,,62.8,-353,-52,12,1013.5,62.6,0
"2017-06-01 06:45:21+00",8.5,9.5,,62.8,-367,-46,11,1013.44,62.6,0
"2017-06-01 06:50:21+00",7.9,8.9,,62.8,-340,-23,12,1013.36,62.5,0
"2017-06-01 06:55:21+00",7.7,8.7,,63,-332,-35,10,1013.31,62.5,0
"2017-06-01 07:00:21+00",7.8,8.8,,63,-327,-39,9,1013.26,62.4,0
"2017-06-01 07:05:21+00",7.7,8.7,,63,-311,-78,9,1013.16,62.3,0
"2017-06-01 07:10:21+00",7.1,8.1,,62.9,-299,-43,6,1013.11,62.2,0
"2017-06-01 07:15:21+00",6.7,7.7,,63,-297,27,15,1013.13,62.2,0
"2017-06-01 07:20:21+00",6.5,7.5,,63.2,-273,92,14,1013.05,62.2,0
"2017-06-01 07:25:21+00",7.1,8.1,,63.2,-311,60,13,1013.01,62.3,0
"2017-06-01 07:30:21+00",8.3,9.3,,63.4,-357,83,23,1013.09,62.6,0
"2017-06-01 07:35:21+00",8.7,9.7,,63.5,-378,80,30,1013.17,62.8,0
"2017-06-01 07:40:21+00",8.4,9.4,,63.5,-375,48,23,1013.27,62.8,0
"2017-06-01 07:45:21+00",8.2,10.2,,63.6,-360,90,17,1013.3,62.7,0
"2017-06-01 07:50:21+00",10.3,12.3,,63.8,-451,90,38,1013.27,62.9,0
"2017-06-01 07:55:21+00",9.5,10.5,,64.1,-423,98,41,1013.2,63.3,0
"2017-06-01 08:00:21+00",10.3,11.3,,64.1,-447,24,21,1013.32,63.2,0
"2017-06-01 08:05:21+00",9.1,10.1,,63.9,-400,15,18,1013.34,63.1,0
"2017-06-01 08:10:21+00",8.9,9.9,,63.8,-391,35,18,1013.43,63,0
"2017-06-01 08:15:21+00",7.0,8.0,,63.7,-299,74,23,1013.35,62.9,0
"2017-06-01 08:20:21+00",6.2,7.2,,63.6,-266,74,24,1013.39,63,0
"2017-06-01 08:25:21+00",6.3,7.3,,63.6,-268,64,21,1013.27,63,0
"2017-06-01 08:30:21+00",5.7,5.7,,63.7,-244,46,14,1013.3,63,0
"2017-06-01 08:35:21+00",4.5,5.5,,63.7,-187,-36,6,1013.14,62.7,0
"2017-06-01 08:40:21+00",3.5,3.5,,63.7,-136,-74,4,1013.16,62.5,0
"2017-06-01 08:45:21+00",2.4,2.4,,63.5,-91,-46,2,1013.22,62.2,0
"2017-06-01 08:50:21+00",3.2,3.2,,63.5,-109,-75,2,1013.37,62.1,0
"2017-06-01 08:55:21+00",4.1,5.1,,63.6,-128,-115,0,1013.33,62.2,0
"2017-06-01 09:00:21+00",5.0,6.0,,63.8,-182,-109,1,1013.44,62,0
"2017-06-01 09:05:21+00",4.7,4.7,,64,-184,-101,7,1013.47,62.1,0
"2017-06-01 09:10:21+00",5.5,6.5,,64.1,-230,-28,10,1013.54,62.1,0
"2017-06-01 09:15:21+00",5.6,6.6,,64.2,-243,21,11,1013.47,62.3,0
"2017-06-01 09:20:21+00",6.5,7.5,,64.2,-278,93,22,1013.57,62.4,0
"2017-06-01 09:25:21+00",7.5,8.5,,64.1,-304,145,23,1013.65,62.3,0
"2017-06-01 09:30:21+00",8.7,9.7,,64.1,-366,150,23,1013.84,62.3,0
"2017-06-01 09:35:21+00",8.3,9.3,,63.9,-361,71,21,1014.06,62.5,0
"2017-06-01 09:40:21+00",4.0,5.0,,63.8,-161,54,5,1013.83,62.5,0
"2017-06-01 09:45:21+00",3.3,4.3,,63.7,-136,27,2,1013.8,62.3,0
"2017-06-01 09:50:21+00",3.5,3.5,,63.8,-139,-20,0,1013.74,62.2,0
"2017-06-01 09:55:21+00",4.3,5.3,,63.8,-171,-35,3,1013.86,62.2,0
"2017-06-01 10:00:21+00",5.1,6.1,,63.7,-204,-64,9,1013.89,62.1,0.1
"2017-06-01 10:05:21+00",4.4,4.4,,63.7,-195,-84,7,1013.96,62,0
"2017-06-01 10:10:21+00",5.7,5.7,,63.9,-237,-85,6,1013.82,62.1,0
"2017-06-01 10:15:21+00",6.7,6.7,,63.9,-273,-60,9,1013.96,62.3,0
"2017-06-01 10:20:21+00",6.3,7.3,,63.9,-274,7,10,1013.96,62.6,5
"2017-06-01 10:25:21+00",7.4,8.4,,63.8,-324,-11,19,1014.08,63,0.7
"2017-06-01 10:30:21+00",7.1,8.1,,63.7,-282,-70,18,1014.03,63.2,21.1
"2017-06-01 10:35:21+00",7.4,8.4,,63.9,-319,-9,22,1014.23,63.5,33.2
"2017-06-01 10:40:21+00",8.6,9.6,,64,-385,6,21,1014.28,63.5,1.8
"2017-06-01 10:45:21+00",7.7,8.7,,64,-343,33,21,1014.29,63.5,21.7
"2017-06-01 10:50:21+00",7.8,9.8,,64,-345,32,33,1014.3,63.5,27.8
"2017-06-01 10:55:21+00",9.5,10.5,,64.1,-415,81,22,1014.29,63.8,89.4
"2017-06-01 11:00:21+00",10.2,11.2,,64.2,-443,86,37,1014.49,64.1,88.2
"2017-06-01 11:05:21+00",8.5,9.5,,64.3,-369,48,15,1014.34,64.4,91.9
"2017-06-01 11:10:21+00",7.5,8.5,,64.5,-329,33,43,1014.18,64.9,136.2
"2017-06-01 11:15:21+00",9.5,10.5,,64.7,-418,71,26,1014.29,65.3,104.7
"2017-06-01 11:20:21+00",9.0,10.0,,64.8,-398,75,50,1014.31,65.3,22.5
"2017-06-01 11:25:21+00",9.7,11.7,,64.8,-426,85,28,1014.37,65.4,133.3
"2017-06-01 11:30:21+00",10.5,12.5,,65,-459,90,33,1014.4,65.6,136.8
"2017-06-01 11:35:21+00",9.7,11.7,,65.2,-423,83,25,1014.34,66,124.1
"2017-06-01 11:40:21+00",8.6,9.6,,65.4,-368,110,20,1014.36,66.3,136.2
"2017-06-01 11:45:21+00",9.7,10.7,,65.6,-415,124,31,1014.38,66.8,162.5
"2017-06-01 11:50:21+00",9.5,10.5,,65.7,-411,131,32,1014.31,67.1,155
"2017-06-01 11:55:21+00",7.3,8.3,,65.8,-300,130,25,1014.12,67.3,163.4
"2017-06-01 12:00:21+00",8.5,9.5,,66.1,-342,179,22,1014.15,67.7,167.5
"2017-06-01 12:05:21+00",6.8,7.8,,66.2,-282,100,66,1014.12,67.9,189.7
"2017-06-01 12:10:21+00",9.1,10.1,,66.2,-388,132,27,1014.19,67.9,197.7
"2017-06-01 12:15:21+00",8.6,9.6,,66.4,-363,121,20,1014.19,68.2,181.6
"2017-06-01 12:20:21+00",7.1,8.1,,66.8,-295,109,66,1014.21,68.5,222.5
"2017-06-01 12:25:21+00",7.4,8.4,,67,-299,133,31,1014.16,68.8,224.9
"2017-06-01 12:30:21+00",6.7,6.7,,67.1,-288,74,27,1014.24,69.1,238.7
"2017-06-01 12:35:21+00",7.1,8.1,,67.4,-311,70,31,1014.32,69.5,254.9
"2017-06-01 12:40:21+00",7.1,8.1,,67.6,-310,80,23,1014.33,69.9,237.8
"2017-06-01 12:45:21+00",7.2,8.2,,67.7,-311,94,26,1014.28,70.1,274.8
"2017-06-01 12:50:21+00",6.4,7.4,,67.9,-263,90,2,1014.17,70.6,271.7
"2017-06-01 12:55:21+00",6.2,7.2,,68.3,-266,21,14,1014.2,71,251.3
"2017-06-01 13:00:21+00",6.7,7.7,,68.6,-286,49,10,1014.12,71.4,280.4
"2017-06-01 13:05:21+00",6.8,7.8,,68.9,-289,81,11,1014.28,71.7,300.7
"2017-06-01 13:10:21+00",7.9,8.9,,69.3,-337,94,10,1014.29,71.9,301.1
"2017-06-01 13:15:21+00",7.2,8.2,,69.5,-315,60,4,1014.19,72.1,310.7
"2017-06-01 13:20:21+00",7.1,8.1,,69.8,-302,54,29,1014.23,72.4,321
"2017-06-01 13:25:21+00",8.5,9.5,,70.3,-359,112,19,1014.12,72.7,333
"2017-06-01 13:30:21+00",8.1,9.1,,70.7,-343,103,15,1014.12,72.9,344.2
"2017-06-01 13:35:21+00",7.2,9.2,,71.1,-293,126,23,1014.01,73.5,374.8
"2017-06-01 13:40:21+00",7.5,8.5,,71.1,-319,88,17,1013.94,73.7,217.7
"2017-06-01 13:45:21+00",8.7,9.7,,71.3,-373,97,8,1013.98,73.6,301.9
"2017-06-01 13:50:21+00",7.7,8.7,,71.5,-329,104,20,1013.97,73.8,377
"2017-06-01 13:55:21+00",7.6,9.6,,71.7,-317,94,6,1013.86,74.2,381.2
"2017-06-01 14:00:21+00",8.0,9.0,,72.2,-342,103,41,1013.89,74.6,391
"2017-06-01 14:05:21+00",10.9,12.9,,72.5,-483,26,30,1013.98,74.9,401.2
"2017-06-01 14:10:21+00",7.8,9.8,,72.6,-334,8,45,1013.93,75.1,409.1
"2017-06-01 14:15:21+00",9.0,11.0,,72.8,-407,25,60,1013.81,75.6,418
"2017-06-01 14:20:21+00",8.7,9.7,,73.1,-387,85,67,1013.88,75.8,427.2
"2017-06-01 14:25:21+00",8.5,9.5,,73.1,-376,37,15,1013.93,76,438.6
"2017-06-01 14:30:21+00",8.6,9.6,,73.2,-364,-82,26,1013.91,75.9,448.9
"2017-06-01 14:35:21+00",8.8,9.8,,73.4,-386,67,39,1013.91,76.1,456.8
"2017-06-01 14:40:21+00",7.4,8.4,,73.4,-317,71,38,1013.93,76.1,466.8
"2017-06-01 14:45:21+00",8.5,9.5,,73.6,-368,14,32,1013.9,76.2,475.6
"2017-06-01 14:50:21+00",9.3,10.3,,74,-394,-140,9,1013.83,76.5,479.9
"2017-06-01 14:55:21+00",9.2,10.2,,74,-311,-266,24,1013.82,77,485.3
"2017-06-01 15:00:21+00",9.8,10.8,,73.8,-390,-219,20,1013.74,77.5,490.5
"2017-06-01 15:05:21+00",8.7,10.7,,73.9,-278,-260,0,1013.73,77.8,501.7
"2017-06-01 15:10:21+00",8.7,10.7,,74.2,-228,-316,12,1013.65,78.1,505
"2017-06-01 15:15:21+00",7.7,8.7,,74.3,-253,-207,-9,1013.63,78.3,511.1
"2017-06-01 15:20:21+00",10.0,12.0,,74.4,-350,-270,25,1013.6,78.4,515.1
"2017-06-01 15:25:21+00",8.4,9.4,,74.6,-306,-206,-7,1013.58,78.9,519.2
"2017-06-01 15:30:21+00",9.2,11.2,,75,-385,-96,42,1013.5,79.1,525.3
"2017-06-01 15:35:21+00",9.6,12.6,,75.1,-420,-81,27,1013.42,78.7,533.4
"2017-06-01 15:40:21+00",10.8,13.8,,75.5,-468,-47,27,1013.45,78.5,542.5
"2017-06-01 15:45:21+00",13.3,15.3,,75.5,-582,144,44,1013.43,78.1,556.7
"2017-06-01 15:50:21+00",15.0,19.0,,76.1,-645,26,22,1013.35,77.9,564.4
"2017-06-01 15:55:21+00",13.1,15.1,,76,-567,110,32,1013.36,77.8,565.5
"2017-06-01 16:00:21+00",12.0,13.0,,76.1,-524,122,50,1013.3,77.6,558
"2017-06-01 16:05:21+00",14.3,16.3,,76.3,-587,276,40,1013.27,77.5,585
"2017-06-01 16:10:21+00",12.4,14.4,,76.7,-528,203,81,1013.16,77.9,592.4
"2017-06-01 16:15:21+00",18.1,20.1,,76.9,-752,342,85,1013.04,78,610.9
"2017-06-01 16:20:21+00",17.5,19.5,,76.4,-732,275,53,1013.01,77.7,622.1
"2017-06-01 16:25:21+00",19.4,22.4,,76.9,-850,191,77,1013.02,77.8,616.9
"2017-06-01 16:30:21+00",20.4,23.4,,77,-909,113,65,1012.99,77.8,479
"2017-06-01 16:35:21+00",17.6,20.6,,77,-758,226,85,1012.86,77.6,633.4
"2017-06-01 16:40:21+00",22.6,28.6,,77.2,-993,228,59,1012.87,77.8,629.9
"2017-06-01 16:45:21+00",19.3,26.3,,76.9,-817,341,60,1012.88,77.8,609.5
"2017-06-01 16:50:21+00",20.6,24.6,,76.9,-857,282,64,1012.77,77.7,599.6
"2017-06-01 16:55:21+00",23.6,26.6,,76.9,-1028,236,59,1012.73,77.6,528.4
"2017-06-01 17:00:21+00",20.7,23.7,,76.8,-871,388,103,1012.73,77.4,622.1
"2017-06-01 17:05:21+00",17.2,20.2,,76.8,-738,259,58,1012.66,77.5,609.7
"2017-06-01 17:10:21+00",20.7,23.7,,76.4,-883,339,53,1012.63,77.3,370.4
"2017-06-01 17:15:21+00",18.8,21.8,,76.2,-810,271,59,1012.56,77.3,595.6
"2017-06-01 17:20:21+00",16.4,18.4,,76.9,-712,214,38,1012.47,77.8,589.4
"2017-06-01 17:25:21+00",22.3,26.3,,76.8,-980,238,92,1012.4,77.6,578.2
"2017-06-01 17:30:21+00",17.5,19.5,,77.1,-765,216,60,1012.47,77.6,570
"2017-06-01 17:35:21+00",17.0,19.0,,77.1,-729,236,52,1012.38,77.6,221.1
"2017-06-01 17:40:21+00",13.5,15.5,,77.1,-565,242,116,1012.38,77.6,576.9
"2017-06-01 17:45:21+00",15.2,17.2,,76.9,-648,226,61,1012.36,77.9,234.6
"2017-06-01 17:50:21+00",19.4,22.4,,77.1,-863,7,42,1012.31,77.4,81.7
"2017-06-01 17:55:21+00",18.0,19.0,,76.6,-789,232,61,1012.3,77,574.6
"2017-06-01 18:00:21+00",19.9,22.9,,77,-865,230,42,1012.31,77.1,570.9
"2017-06-01 18:05:21+00",19.5,22.5,,76.8,-817,346,65,1012.23,76.9,121.4
"2017-06-01 18:10:21+00",18.0,22.0,,76.8,-753,308,69,1012.26,77,588.8
"2017-06-01 18:15:21+00",18.5,20.5,,77.2,-786,296,92,1012.26,77.6,570.3
"2017-06-01 18:20:21+00",21.8,24.8,,77.2,-957,204,65,1012.22,77.5,99.6
"2017-06-01 18:25:21+00",15.8,17.8,,76.8,-674,251,55,1012.28,76.8,408.5
"2017-06-01 18:30:21+00",16.7,18.7,,76.8,-734,173,68,1012.3,76.9,273.6
"2017-06-01 18:35:21+00",20.7,23.7,,77,-903,269,88,1012.24,77,566.8
"2017-06-01 18:40:21+00",14.7,16.7,,76.7,-636,208,47,1012.33,76.4,62.6
"2017-06-01 18:45:21+00",16.4,17.4,,75.9,-707,234,48,1012.32,75.6,115.3
"2017-06-01 18:50:21+00",16.1,19.1,,76.9,-698,214,68,1012.21,76.7,556.1
"2017-06-01 18:55:21+00",19.2,23.2,,77.4,-765,396,72,1012.18,77.6,492.6
"2017-06-01 19:00:21+00",18.6,20.6,,76.9,-797,287,59,1012.17,77.6,536.6
"2017-06-01 19:05:21+00",13.8,15.8,,76.6,-609,168,41,1012.13,77.4,193.8
"2017-06-01 19:10:21+00",15.4,18.4,,76.5,-667,213,61,1012.21,77.3,495.2
"2017-06-01 19:15:21+00",16.1,18.1,,77.3,-686,205,105,1012.02,77.5,495.8
"2017-06-01 19:20:21+00",18.4,20.4,,77.7,-774,316,66,1011.94,78.1,495.1
"2017-06-01 19:25:21+00",18.2,22.2,,77.9,-784,248,61,1011.89,78.5,466
"2017-06-01 19:30:21+00",17.0,22.0,,77.7,-696,341,45,1011.84,78.7,452
"2017-06-01 19:35:21+00",19.8,22.8,,78.1,-885,129,65,1011.79,78.6,462.3
"2017-06-01 19:40:21+00",14.9,17.9,,78.2,-661,96,42,1011.84,78.8,447.7
"2017-06-01 19:45:21+00",15.6,17.6,,77.9,-688,174,74,1011.71,78.8,436.8
"2017-06-01 19:50:21+00",17.9,20.9,,77.5,-753,291,55,1011.68,78.7,428.3
"2017-06-01 19:55:21+00",18.4,20.4,,77.8,-812,178,54,1011.65,78.3,300.3
"2017-06-01 20:00:21+00",21.8,24.8,,78.6,-956,-42,47,1011.58,78.9,404.3
"2017-06-01 20:05:21+00",17.9,20.9,,78.5,-787,-33,53,1011.54,78.8,128.3
"2017-06-01 20:10:21+00",13.6,15.6,,77.7,-583,196,52,1011.71,78.2,314.3
"2017-06-01 20:15:21+00",18.4,20.4,,78,-806,196,57,1011.65,78.3,392.5
"2017-06-01 20:20:21+00",14.3,16.3,,77.4,-635,142,48,1011.64,77.9,249.5
"2017-06-01 20:25:21+00",16.3,19.3,,78.1,-719,46,60,1011.75,78,393.7
"2017-06-01 20:30:21+00",20.8,23.8,,77.7,-913,237,68,1011.69,78,266.6
"2017-06-01 20:35:21+00",16.9,17.9,,77.4,-734,176,49,1011.71,77.4,53.5
"2017-06-01 20:40:21+00",14.0,16.0,,78.3,-608,157,43,1011.69,78.3,30.1
"2017-06-01 20:45:21+00",15.4,18.4,,79,-682,19,49,1011.61,79.2,27.6
"2017-06-01 20:50:21+00",18.5,22.5,,78.2,-788,281,56,1011.63,79.3,25.1
"2017-06-01 20:55:21+00",16.6,18.6,,78.2,-727,226,66,1011.71,78.4,24.2
"2017-06-01 21:00:21+00",19.0,22.0,,78.8,-840,156,77,1011.64,78.9,342.9
"2017-06-01 21:05:21+00",15.7,17.7,,78.4,-676,228,62,1011.78,79.4,312.1
"2017-06-01 21:10:21+00",18.7,23.7,,78.1,-808,272,81,1011.71,79.1,285.3
"2017-06-01 21:15:21+00",19.4,23.4,,78.3,-849,244,66,1011.8,78.9,32.1
"2017-06-01 21:20:21+00",20.0,22.0,,77.8,-846,322,54,1011.88,77.9,238.2
"2017-06-01 21:25:21+00",16.7,19.7,,78.1,-700,278,65,1011.84,78.5,267.9
"2017-06-01 21:30:21+00",14.1,16.1,,77.3,-528,353,51,1011.77,78.4,29
"2017-06-01 21:35:21+00",13.3,14.3,,76.9,-568,203,51,1011.99,77.8,240.6
"2017-06-01 21:40:21+00",14.1,17.1,,77.2,-597,228,61,1011.87,78.3,192.4
"2017-06-01 21:45:21+00",15.7,16.7,,76.8,-644,305,37,1011.9,77.9,206.1
"2017-06-01 21:50:21+00",13.4,15.4,,77.1,-566,229,46,1011.82,78.2,208.1
"2017-06-01 21:55:21+00",12.9,13.9,,76.9,-565,143,39,1011.84,77.9,199.3
"2017-06-01 22:00:21+00",14.2,17.2,,77.1,-608,194,36,1011.89,77.6,150.2
"2017-06-01 22:05:21+00",12.5,14.5,,76.7,-513,224,50,1011.83,77.7,181.7
"2017-06-01 22:10:21+00",13.4,14.4,,76.8,-561,213,58,1011.86,77.7,174.8
"2017-06-01 22:15:21+00",13.6,15.6,,77.2,-571,221,48,1011.75,77.7,159.7
"2017-06-01 22:20:21+00",13.5,14.5,,76.9,-587,170,35,1011.83,77.6,138.3
"2017-06-01 22:25:21+00",16.2,18.2,,76.7,-705,212,49,1011.89,77.2,138.4
"2017-06-01 22:30:21+00",17.1,18.1,,76.8,-716,269,58,1011.76,77.1,116.3
"2017-06-01 22:35:21+00",15.8,18.8,,76.5,-636,328,36,1011.79,77.1,116.1
"2017-06-01 22:40:21+00",15.4,17.4,,76.6,-631,295,56,1011.8,77,107.4
"2017-06-01 22:45:21+00",14.2,16.2,,76.3,-583,280,34,1011.86,76.9,96.9
"2017-06-01 22:50:21+00",14.8,15.8,,76.5,-580,335,44,1011.84,76.7,84.7
"2017-06-01 22:55:21+00",17.3,21.3,,76.5,-687,392,40,1011.84,76.6,78
"2017-06-01 23:00:21+00",16.5,18.5,,76.2,-663,333,41,1011.95,76.4,65.4
"2017-06-01 23:05:21+00",14.6,15.6,,76,-587,321,40,1012,76.1,56.3
"2017-06-01 23:10:21+00",13.4,14.4,,75.8,-519,300,46,1012.09,75.9,52
"2017-06-01 23:15:21+00",13.7,17.7,,75.6,-508,337,36,1012.16,75.6,39.2
"2017-06-01 23:20:21+00",14.2,16.2,,75.6,-527,371,48,1012.13,75.4,29.2
"2017-06-01 23:25:21+00",12.7,13.7,,75.6,-484,285,36,1012.19,75.2,22
"2017-06-01 23:30:21+00",11.7,12.7,,75.1,-496,189,26,1012.16,74.8,14.9
"2017-06-01 23:35:21+00",10.7,11.7,,74.3,-472,157,31,1012.25,74.3,6.8
"2017-06-01 23:40:21+00",11.2,12.2,,74.2,-462,204,30,1012.23,73.8,2.1
"2017-06-01 23:45:21+00",11.5,12.5,,74.2,-457,230,32,1012.34,73.5,0
"2017-06-01 23:50:21+00",12.1,13.1,,74.2,-451,302,32,1012.41,73.3,0
"2017-06-01 23:55:21+00",10.4,11.4,,74.1,-372,285,28,1012.47,73,0
